Garden Spring, Nevada Weather observations

Data are for 10 minute period ending at time listed.
 Day   Time    Ave.   Ave.  Ave.  Vector   Max.   Stn.    Total    Solar   Ave.  
  of    of     Air    Rel.  Wind   Wind    Wind   Baro.  Precip.   Rad.    Soil  
Year   Day     Temp.  Hum.  Speed  Dir.    Gust   Pres.                    Temp. 
2026   (PST)    F      %     mph   deg.    mph     mb.     in.     W/m2     F    
--------------------------------------------------------------------------------- 
 123    1:20   51.9    20    5.5   266      7.0   851.4    0.00       0    65.8  
 123    1:30   52.1    19    5.4   265      6.8   851.3    0.00       0    65.6  
 123    1:40   53.3    17    5.5   268      7.0   851.2    0.00       0    65.5  
 123    1:50   52.5    18    5.3   275      7.0   851.2    0.00       0    65.4  
 123    2:00   54.2    16    6.0   270      7.9   851.1    0.00       0    65.3  
 123    2:10   54.1    16    6.3   260      8.5   851.1    0.00       0    65.2  
 123    2:20   54.0    17    5.3   269      7.0   851.1    0.00       0    65.0  
 123    2:30   53.0    18    5.3   270      7.3   851.1    0.00       0    64.8  
 123    2:40   53.0    18    5.6   276      7.3   851.0    0.00       0    64.6  
 123    2:50   52.8    18    5.4   272      6.8   850.9    0.00       0    64.5  
 123    3:00   53.2    18    5.4   270      6.9   850.9    0.00       0    64.3  
 123    3:10   52.9    18    5.3   275      6.2   850.8    0.00       0    64.2  
 123    3:20   53.0    18    4.8   270      6.4   850.8    0.00       0    64.1  
 123    3:30   52.4    19    5.1   279      6.8   850.8    0.00       0    63.9  
 123    3:40   52.8    18    5.0   282      7.2   850.7    0.00       0    63.7  
 123    3:50   53.5    18    5.1   273      7.7   850.6    0.00       0    63.6  
 123    4:00   53.6    18    4.7   283      7.0   850.6    0.00       0    63.5  
 123    4:10   53.5    18    4.9   276      7.5   850.5    0.00       0    63.4  
 123    4:20   54.8    17    4.1   283      7.1   850.5    0.00       0    63.3  
 123    4:30   55.6    18    4.4   266      6.5   850.5    0.00       0    63.2  
 123    4:40   54.8    19    4.9   262      6.8   850.5    0.00       2    63.0  
 123    4:50   54.6    19    4.6   276      7.6   850.5    0.00       5    62.9  
 123    5:00   54.8    20    4.1   274      6.2   850.6    0.00      15    62.8  
 123    5:10   57.0    18    3.6   289      6.2   850.6    0.00      31    62.7  
 123    5:20   56.7    19    4.2   268      5.4   850.8    0.00      50    62.5  
 123    5:30   58.8    18    3.7   269      6.6   850.8    0.00      70    62.6  
 123    5:40   59.4    18    3.4   279      5.9   850.9    0.00      57    62.6  
 123    5:50   59.5    18    2.7   263      4.7   851.0    0.00      68    62.4  
 123    6:00   60.5    17    2.4   257      5.2   851.1    0.00      83    62.3  
 123    6:10   62.3    14    2.2   262      5.5   851.2    0.00     155    62.3  
 123    6:20   65.2    14    2.1   246      4.1   851.3    0.00     288    62.9  
 123    6:30   67.7    14    2.3    28      5.5   851.3    0.00     303    63.3  
 123    6:40   69.2    13    3.2    30      6.4   851.4    0.00     304    63.5  
 123    6:50   68.9    13    4.9    71      8.6   851.3    0.00     443    63.4  
 123    7:00   68.6    13    3.6    78      7.9   851.4    0.00     348    63.3  
 123    7:10   68.7    13    5.2    63      8.4   851.4    0.00     326    63.0  
 123    7:20   69.4    13    4.6    78      8.0   851.4    0.00     477    62.8  
 123    7:30   70.3    12    5.1    66      8.3   851.4    0.00     470    62.9  
 123    7:40   70.7    12    4.5    92      8.6   851.4    0.00     616    62.9  
 123    7:50   71.7    12    4.9    93      9.8   851.3    0.00     657    63.1  
 123    8:00   70.5    12    4.6   119      9.7   851.3    0.00     491    62.9  
 123    8:10   70.9    12    5.4    88      9.2   851.2    0.00     500    62.6  
 123    8:20   71.7    12    4.7   118      8.9   851.3    0.00     553    62.5  
 123    8:30   72.5    11    5.7   124      9.8   851.3    0.00     669    62.6  
 123    8:40   73.7    11    4.1   134     10.6   851.3    0.00     775    63.0  
 123    8:50   73.5    11    6.1   126     11.7   851.3    0.00     799    63.2  
 123    9:00   73.9    11    4.9   127     11.6   851.2    0.00     824    63.3  
 123    9:10   73.7    11    6.0   119     11.1   851.1    0.00     849    63.4  
 123    9:20   74.3    11    6.7   126     13.5   851.0    0.00     873    63.6  
 123    9:30   75.0    10    5.4   150     11.2   851.0    0.00     895    63.7  
 123    9:40   75.5    10    6.3   123     13.8   850.9    0.00     915    64.0  
 123    9:50   75.3    10    6.8   125     12.1   850.8    0.00     907    64.2  
 123   10:00   76.0    10    7.2   162     15.7   850.8    0.00     904    64.4  
 123   10:10   75.6    10    6.0   152     14.2   850.7    0.00    1034    64.7  
 123   10:20   76.5    10    8.8   142     14.5   850.6    0.00    1080    65.0  
 123   10:30   76.4    10    6.2   166     14.7   850.4    0.00    1081    65.2  
 123   10:40   77.1    11    7.8   165     15.3   850.3    0.00    1090    65.5  
 123   10:50   76.9    11    8.1   160     15.1   850.2    0.00    1068    65.6  
 123   11:00   76.5    11    7.6   154     13.6   850.1    0.00    1105    65.8  
 123   11:10   76.8    11    6.6   174     15.2   850.0    0.00    1067    66.0  
 123   11:20   76.7    11    8.5   204     16.0   849.8    0.00    1060    66.3  
 123   11:30   76.5    11    9.8   180     20.4   849.7    0.00    1063    66.5  
 123   11:40   76.4    11    7.9   149     17.1   849.6    0.00    1048    66.8  
 123   11:50   77.3    10    7.4   157     20.1   849.4    0.00    1049    67.3  
 123   12:00   77.4    10    9.1   183     17.2   849.3    0.00    1047    67.6  
 123   12:10   77.1    11    9.9   167     17.7   849.2    0.00    1044    68.2  
 123   12:20   77.2    11    8.4   171     18.3   849.1    0.00    1056    68.8  
 123   12:30   77.9    11    8.9   185     18.3   848.9    0.00     965    69.3  
 123   12:40   75.2    12    8.8   197     17.2   848.8    0.00     531    69.7  
 123   12:50   77.0    12   11.0   192     19.0   848.7    0.00    1032    70.2  
 123   13:00   77.0    12    9.3   176     16.5   848.5    0.00     933    70.8  
 123   13:10   77.2    12    9.5   165     20.8   848.4    0.00    1025    71.4  
 123   13:20   78.2    11    9.1   175     20.1   848.2    0.00     905    72.0  
 123   13:30   78.1    11    9.5   172     18.0   848.1    0.00     962    72.4  
 123   13:40   77.8    11    7.5   154     15.8   847.9    0.00     939    72.8  
 123   13:50   78.0    11    7.9   167     13.6   847.6    0.00     937    73.1  
 123   14:00   77.9    11    9.0   191     15.3   847.3    0.00     748    73.4  
 123   14:10   76.4    12    9.8   204     17.9   847.3    0.00     365    73.6  
 123   14:20   76.6    12    6.2   165     14.7   847.0    0.00     704    73.7  
 123   14:30   76.8    12    6.8   201     16.8   846.9    0.00     289    74.2  
 123   14:40   74.1    13    7.7   198     16.9   846.9    0.00     117    74.2  
 123   14:50   73.8    14    9.5   218     16.7   846.8    0.00     228    74.4  
 123   15:00   74.0    14    7.2   248     13.2   846.7    0.00     488    74.8  
 123   15:10   75.5    14    6.6   208     15.4   846.6    0.00     570    75.4  
 123   15:20   74.8    14    5.6   229     12.8   846.5    0.00     382    75.5  
 123   15:30   74.8    14    6.4   203     13.0   846.3    0.00     186    75.6  
 123   15:40   74.2    14    5.8   182     10.4   846.2    0.00     282    75.5  
 123   15:50   74.9    14    7.2   181     12.3   846.1    0.00     316    75.7  
 123   16:00   74.3    14    6.7   177     12.3   846.0    0.00     161    75.7  
 123   16:10   74.1    14    6.7   190     13.8   846.0    0.00     181    75.7  
 123   16:20   73.4    14    7.2   186     12.5   846.0    0.00      70    75.7  
 123   16:30   72.9    14    4.1   191     10.3   846.0    0.00      35    75.7  
 123   16:40   71.6    18    9.1   162     16.6   846.1    0.00      19    75.6  
 123   16:50   70.6    18   11.8   143     24.8   846.2    0.00      19    75.5  
 123   17:00   69.2    21   10.8   193     32.8   846.7    0.00      14    75.4  
 123   17:10   66.9    25    5.4   230     16.8   846.9    0.00      24    74.8  
 123   17:20   66.0    28    8.3   353     16.8   846.6    0.00      19    74.8  
 123   17:30   64.5    30    7.9   353     16.5   846.6    0.00      11    74.9  
 123   17:40   65.3    28    7.2   103     18.2   846.9    0.00       8    74.8  
 123   17:50   64.2    36   10.7   127     20.6   847.5    0.00       7    74.6  
 123   18:00   61.8    43    5.9    98     12.1   846.9    0.00       9    74.2  
 123   18:10   62.1    40    7.1    74     14.3   846.7    0.00       4    74.2  
 123   18:20   61.4    41   10.6    20     20.7   846.4    0.00       4    74.1  
 123   18:30   61.0    40    8.0    22     13.7   846.3    0.00       2    74.1  
 123   18:40   61.1    40    5.0   330      9.0   846.3    0.00       1    74.1  
 123   18:50   60.8    42    5.2   275      8.6   846.4    0.00       0    73.9  
 123   19:00   60.8    41    4.9   283      7.2   846.5    0.00       0    73.8  
 123   19:10   61.1    40    5.3   271      8.6   846.5    0.00       0    73.6  
 123   19:20   61.2    39    3.0   304      5.0   846.5    0.00       0    73.4  
 123   19:30   60.9    38    3.4   279      6.2   846.5    0.00       0    73.1  
 123   19:40   60.5    38    4.3   266      7.4   846.5    0.00       0    72.9  
 123   19:50   59.1    41    4.9   283      6.5   846.7    0.00       0    72.6  
 123   20:00   58.8    41    5.1   274      7.0   846.8    0.00       0    72.4  
 123   20:10   60.7    36    4.1   258      6.9   847.0    0.00       0    72.4  
 123   20:20   60.8    37    1.7   316      4.0   847.2    0.00       0    72.3  
 123   20:30   62.6    31    4.9   258     12.8   847.5    0.00       0    72.1  
 123   20:40   63.4    31    6.3   113     17.6   847.6    0.00       0    72.1  
 123   20:50   64.6    26    7.6   134     16.0   847.3    0.00       0    72.1  
 123   21:00   66.5    21   11.4   155     19.8   847.1    0.00       0    72.2  
 123   21:10   67.1    21    9.4   159     17.0   847.1    0.00       0    72.2  
 123   21:20   65.3    27   10.0   120     20.9   847.2    0.00       0    71.7  
 123   21:30   64.2    29   10.1   106     19.8   847.2    0.00       0    71.2  
 123   21:40   63.8    29    8.4   111     17.0   847.3    0.00       0    71.0  
 123   21:50   64.6    26    6.0   145     21.1   847.1    0.00       0    70.8  
 123   22:00   65.6    24   14.7   140     31.9   847.0    0.00       0    70.7  
 123   22:10   65.2    26    6.4    99     16.5   846.8    0.00       0    70.6  
 123   22:20   64.8    25    5.1   164     10.4   846.8    0.00       0    70.3  
 123   22:30   64.1    27    4.1   112      7.4   847.0    0.00       0    70.1  
 123   22:40   62.3    32    3.2    92      7.1   846.9    0.00       0    69.8  
 123   22:50   61.4    32    2.8    91      6.3   847.0    0.00       0    69.5  
 123   23:00   61.1    33    3.6    69      8.7   847.0    0.00       0    69.3  
 123   23:10   60.9    33    2.0    76      4.9   847.0    0.00       0    69.1  
 123   23:20   59.8    35    1.7   298      4.1   847.1    0.00       0    69.0  
 123   23:30   59.2    35    1.9   258      4.2   847.1    0.00       0    68.9  
 123   23:40   59.0    36    2.6   330      5.5   847.1    0.00       0    68.7  
 123   23:50   59.1    36    2.0   314      4.3   847.1    0.00       0    68.6  
 124    0:00   59.0    36    1.6   240      3.4   847.0    0.00       0    68.5  
 124    0:10   57.4    40    3.3   250      6.7   846.9    0.00       0    68.3  
 124    0:20   57.0    41    3.8   257      5.8   846.9    0.00       0    68.2  
 124    0:30   57.3    41    2.5   247      5.5   846.9    0.00       0    68.1  
 124    0:40   57.8    40    2.2   210      3.9   847.0    0.00       0    68.0  
 124    0:50   58.7    39    2.0   346      6.0   847.0    0.00       0    67.9  
 124    1:00   58.2    40    1.3   290      3.9   847.0    0.00       0    67.9  
 124    1:10   57.7    42    2.3   261      5.8   847.0    0.00       0    67.7  

Return to Garden Spring, Nevada graphs page.


Western Regional Climate Center,wrcc@dri.edu